Simultaneous Nadir Overpasses (SNOs) Predictions

Prediction of SNOs over PacNW region [( 10.00, 139.50) to ( 22.70, 165.60)] between AQUA and NPP Satellites:

Table of predicted SNOs over PacNW region for the next 30.0 days since TLE Epoch: 12/31/2022
Index Date (AQUA) Time (AQUA) AQUA Lat,Lon Date (NPP) Time (NPP) NPP Lat,Lon Distance(km) Time Diff (sec)
1 01/07/2023 14:57:59 22.60, 164.85 01/07/2023 14:59:36 23.59, 160.53 455.35 97
2 01/10/2023 03:18:42 22.68, 152.78 01/10/2023 03:15:48 21.92, 149.12 385.80 174
3 01/18/2023 04:02:23 15.20, 143.13 01/18/2023 04:04:27 14.17, 138.30 532.83 124
4 01/20/2023 16:02:55 11.98, 147.03 01/20/2023 15:59:58 12.69, 143.62 378.97 177
